Theta_e
303 303 302 301 299 302 300 293 283 298 303 291 292 289 293 295 296 299 297 296 295 294 293 289 288 288 290 295 293 289 291 288 280 284 288 289 287 286 287 280 278 280 279 283
304 304 303 302 301 302 294 287 288 299 302 282 284 288 290 292 291 294 294 293 295 296 294 290 292 292 295 295 292 291 292 285 274 281 285 287 285 287 288 288 283 281 276 283
304 304 304 303 302 302 297 288 280 288 293 289 285 285 287 288 293 291 293 293 295 293 290 294 290 292 295 295 294 297 296 288 282 278 284 288 284 287 290 288 278 281 283 285
304 304 305 304 303 302 295 290 282 286 281 282 286 286 286 285 285 290 291 289 291 291 287 288 288 291 292 293 295 292 293 285 286 287 288 289 289 288 288 288 288 285 286 286
303 304 304 304 304 303 289 286 284 285 283 284 283 284 283 284 286 288 286 286 289 290 287 288 286 290 290 289 290 291 291 280 286 282 287 287 284 285 286 289 289 289 289 289
301 303 304 304 304 301 291 288 292 288 283 284 281 280 283 284 286 288 290 288 287 285 288 291 291 291 291 290 287 288 287 284 281 270 281 282 275 282 285 286 289 289 286 290
300 301 302 303 304 302 290 288 289 285 276 281 281 284 284 284 285 284 286 289 287 289 293 290 287 286 288 289 288 288 284 284 282 267 270 263 279 285 286 287 288 290 290 291
298 299 300 302 303 304 295 292 287 284 280 281 281 282 282 285 286 284 285 287 289 292 287 277 272 271 273 273 281 285 286 280 269 267 260 273 278 280 281 281 281 287 286 288
297 298 299 300 302 303 299 295 292 284 275 279 285 281 282 277 278 278 282 285 289 289 283 278 271 265 268 266 272 279 285 285 277 262 265 264 277 282 288 288 277 286 287 287
296 296 297 298 300 301 300 295 297 291 283 280 285 278 280 283 280 277 275 282 285 286 278 274 267 266 274 267 269 275 276 279 277 275 273 272 281 282 287 272 276 280 284 286
295 296 296 297 299 300 299 296 297 292 285 282 286 287 282 280 280 276 278 282 282 279 275 272 270 266 273 271 274 275 273 271 271 269 272 270 284 283 281 283 283 284 284 285
295 296 296 296 298 299 299 291 297 297 287 282 289 289 291 290 289 282 279 278 274 280 276 271 270 268 268 270 267 279 271 277 273 276 276 283 285 284 287 287 285 284 284 286
294 295 295 295 296 297 297 292 293 293 286 285 282 284 287 291 291 292 280 282 284 282 282 276 272 269 273 267 268 272 278 280 276 275 279 279 281 284 285 287 286 286 286 286
294 294 294 295 295 296 297 292 293 291 286 282 281 287 287 289 290 290 289 286 287 286 282 274 268 268 278 271 275 274 276 278 272 273 280 280 282 283 285 285 286 287 286 286
293 293 294 294 294 295 293 294 292 293 287 279 275 280 285 288 289 288 287 286 283 276 273 274 274 274 276 271 275 270 278 277 276 273 280 280 281 284 284 283 284 285 284 284
292 293 293 293 294 294 289 283 291 292 291 281 274 282 280 283 287 286 285 285 282 278 274 272 275 281 278 267 260 278 279 280 281 279 282 282 283 284 283 284 284 285 284 284
292 292 293 293 293 289 284 282 283 294 292 282 275 276 281 285 285 284 284 285 280 280 276 271 277 278 278 266 271 279 279 280 280 281 279 279 280 281 281 283 282 280 278 278
292 292 293 293 293 292 286 289 294 294 287 284 275 273 278 286 281 280 284 282 282 279 279 275 276 277 275 268 276 279 276 277 278 276 275 276 277 277 275 276 276 274 275 275
291 292 292 289 286 282 284 293 293 293 286 279 274 272 271 282 280 280 280 281 276 281 276 276 276 267 270 275 277 276 271 272 271 269 270 271 271 272 270 270 270 269 271 271
292 288 283 279 281 292 292 286 282 282 283 281 275 274 272 280 275 275 274 276 274 272 271 278 274 266 277 272 266 266 265 264 265 263 266 261 262 265 266 266 267 267 266 266
286 282 279 282 292 285 282 278 277 278 274 278 277 277 275 275 271 270 277 273 275 269 268 270 261 262 274 264 261 262 262 262 261 260 261 262 262 262 262 261 261 261 261 260
285 281 286 286 282 279 276 275 276 274 272 275 275 274 276 277 280 276 276 273 272 267 264 265 258 269 260 259 259 258 258 256 255 256 258 259 260 260 259 258 257 257 258 258
284 280 278 276 274 270 269 267 268 268 273 274 276 274 275 278 280 275 274 269 266 266 267 263 265 259 255 253 254 253 253 253 253 254 255 256 256 256 254 254 254 255 255 255
277 273 268 269 268 267 269 269 268 270 274 277 277 270 274 277 274 274 268 267 265 258 262 261 260 255 252 251 251 249 250 249 251 251 252 253 253 253 252 251 252 253 253 254
266 269 262 260 259 257 260 261 263 265 277 277 273 273 274 270 272 271 268 264 260 261 261 262 253 251 251 251 249 248 248 249 249 248 248 250 250 249 249 249 249 251 253 255
259 254 260 259 261 260 257 257 261 261 266 272 274 268 269 270 271 267 263 261 259 263 256 249 251 249 248 247 246 247 246 246 247 247 248 249 248 248 249 247 248 250 253 254
257 254 255 253 256 254 255 255 257 260 267 265 266 262 267 270 264 260 260 261 256 247 246 246 247 248 247 245 244 245 245 245 245 246 246 247 247 247 247 247 249 250 252 253
Wind_Speed
11 10 9 6 3 3 2 1 2 3 2 3 3 5 5 2 7 4 2 2 2 2 4 3 6 5 3 8 1 8 1 5 5 6 3 2 3 6 6 5 3 4 4 15
13 14 13 10 8 4 2 1 2 2 0 5 4 3 4 2 5 6 6 9 7 6 2 1 0 4 1 8 6 3 2 1 3 7 4 3 3 2 3 1 5 12 5 18
13 15 15 14 10 8 3 1 2 2 1 1 2 5 5 8 6 3 3 4 3 4 7 5 2 2 2 3 4 8 6 2 5 7 4 3 3 4 4 2 3 3 15 20
14 13 19 18 14 12 4 1 3 4 5 4 7 1 5 9 6 4 6 2 6 7 5 5 5 4 3 2 6 5 5 6 2 3 2 3 3 6 5 5 7 6 13 10
13 15 16 22 18 15 3 4 2 4 1 5 12 7 5 8 8 8 4 4 8 6 5 5 7 8 6 5 2 3 1 3 2 3 5 5 6 11 10 13 16 15 21 23
11 14 15 21 24 14 3 2 2 1 4 4 6 6 4 3 4 3 7 8 4 1 3 6 4 6 4 7 9 4 5 5 3 4 1 4 6 12 13 8 6 8 14 21
14 13 15 19 26 22 4 3 4 3 4 5 6 2 9 8 3 5 2 6 7 3 9 8 8 10 7 5 4 6 8 5 3 4 5 2 10 4 0 7 7 9 10 6
21 16 14 17 22 27 7 3 5 5 5 3 5 6 3 6 11 3 3 3 2 10 6 5 6 6 7 5 5 6 6 5 1 4 5 6 11 9 6 7 5 2 2 4
19 20 17 15 18 24 11 7 4 4 6 10 6 5 6 5 3 3 1 3 4 6 4 4 6 6 6 4 7 2 4 5 6 2 6 10 10 1 6 6 5 6 3 3
20 19 21 21 20 20 14 5 10 3 5 5 9 5 6 6 4 3 2 2 5 4 3 3 4 5 5 5 8 7 6 5 15 11 8 8 15 6 2 5 9 5 4 5
22 21 22 23 22 20 13 7 16 9 5 4 9 9 7 3 3 6 4 5 0 2 4 5 5 4 6 3 5 8 9 9 6 4 5 12 8 3 8 5 3 6 4 7
22 22 22 21 22 19 16 4 10 12 5 5 6 11 12 10 10 8 0 4 5 5 4 1 3 0 1 5 4 3 2 8 8 11 9 7 3 4 4 6 4 5 5 9
21 22 23 23 22 20 18 4 3 7 8 3 3 13 6 6 8 8 7 2 4 4 5 5 3 4 4 4 7 1 5 3 4 5 9 7 7 5 4 6 7 6 6 7
23 23 23 20 22 21 18 7 4 5 2 7 6 2 13 9 9 8 6 8 5 5 3 3 4 3 2 3 4 5 7 3 3 4 6 3 5 5 6 6 4 6 6 6
23 24 23 23 24 23 14 6 5 7 3 3 3 2 6 10 13 11 9 9 7 3 3 3 3 2 3 2 2 4 5 5 3 5 5 3 7 10 6 8 9 9 7 7
22 22 21 23 22 20 5 4 7 11 8 3 4 0 5 6 13 12 12 9 4 4 5 3 3 3 4 3 5 12 7 5 8 13 9 7 12 11 8 13 10 8 6 6
26 23 23 23 24 11 9 4 1 19 11 4 4 3 2 12 9 3 3 2 3 5 3 2 4 3 5 3 11 23 4 8 7 9 3 12 6 7 7 5 6 5 3 2
26 27 25 26 24 21 16 13 12 8 6 4 6 3 5 11 6 5 3 4 3 1 4 2 4 1 2 5 9 12 3 4 7 2 3 4 7 2 4 6 6 6 5 6
25 26 27 13 12 9 11 15 22 7 6 4 5 9 6 5 4 3 3 3 3 3 4 5 6 3 7 12 9 5 4 3 3 8 6 2 4 5 6 7 6 5 7 7
28 18 9 8 7 15 14 9 10 10 7 4 4 4 7 11 4 3 5 3 4 5 4 5 4 5 10 2 4 6 5 4 4 4 5 5 1 5 8 6 6 6 7 9
9 8 8 4 19 9 8 10 12 7 5 5 5 9 14 2 8 5 2 5 5 5 5 8 3 5 9 7 7 6 6 4 3 1 4 4 6 8 8 7 6 7 6 7
9 6 6 5 5 8 11 9 8 7 8 5 14 9 9 4 5 4 4 4 4 6 4 6 4 6 4 4 4 4 4 4 3 2 4 5 7 6 6 6 6 6 7 8
4 4 4 3 6 5 6 7 2 6 5 5 13 11 6 3 4 3 4 5 5 4 3 6 7 4 4 3 2 2 3 2 1 3 3 4 5 5 3 6 5 7 7 6
4 4 4 3 3 2 4 4 5 3 9 17 13 7 5 4 4 4 6 2 5 4 5 8 4 7 7 4 2 3 1 3 3 3 3 3 4 4 4 5 5 5 6 6
6 4 1 3 2 2 0 3 0 4 8 13 7 6 5 4 6 4 5 3 4 6 8 5 3 5 6 5 3 3 1 3 5 3 3 4 3 3 4 5 5 4 4 4
5 10 2 5 1 1 4 5 3 6 3 2 4 5 5 3 5 5 6 10 8 6 5 3 6 6 4 4 3 2 3 3 5 3 2 2 1 1 3 4 4 4 4 5
5 4 2 3 3 3 3 4 5 7 1 4 4 6 4 5 4 2 5 7 4 3 2 2 4 6 5 4 3 3 2 2 1 2 2 2 2 3 4 4 4 4 3 4
Wind_Direction
212 217 222 234 246 316 85 291 135 292 29 141 222 199 173 141 179 149 163 340 1 102 40 148 190 136 42 321 53 137 209 141 170 200 247 157 128 184 161 158 243 224 178 266
229 217 216 220 206 154 102 165 190 339 71 179 193 214 187 179 205 178 182 193 185 77 115 346 296 98 36 30 55 72 338 14 55 355 360 353 159 193 192 171 90 238 125 260
231 228 215 211 208 163 93 21 131 353 346 78 135 169 189 191 197 205 205 194 165 128 172 212 147 110 24 63 101 69 61 60 156 176 113 29 63 11 14 6 164 233 230 284
252 232 214 207 205 174 100 184 240 187 185 246 211 360 200 188 190 200 162 226 195 182 192 193 199 117 120 73 133 56 132 217 227 230 181 115 208 267 267 253 271 258 279 283
258 248 227 205 202 172 97 160 206 344 183 151 174 218 227 196 187 158 212 165 206 204 196 178 203 145 162 167 73 110 101 168 191 286 226 233 242 232 221 230 246 246 254 256
263 251 239 212 200 171 145 170 137 21 282 169 151 219 161 133 173 227 177 191 191 186 247 119 100 79 78 145 136 130 150 133 121 276 138 157 299 235 205 206 212 220 242 253
259 260 250 225 208 196 134 174 122 170 256 195 197 181 191 218 224 204 61 140 142 152 110 73 42 42 50 74 107 126 148 125 129 218 32 304 245 310 17 205 219 227 255 302
248 253 253 244 220 208 197 164 135 160 229 203 247 234 201 217 235 232 176 60 342 144 78 66 47 354 22 310 237 189 146 134 136 159 188 299 305 273 183 166 260 48 202 317
243 245 249 255 248 226 202 192 148 137 130 226 154 198 198 177 170 37 34 332 341 72 93 98 149 194 197 274 334 66 168 159 151 101 170 207 241 214 112 119 274 173 152 285
252 247 243 243 245 247 227 181 189 169 212 225 167 173 181 160 138 137 129 110 19 36 108 130 159 230 187 167 169 166 153 203 217 221 228 275 255 207 143 125 250 208 185 230
244 245 245 240 246 246 236 210 185 191 218 220 194 168 153 85 136 142 185 96 188 57 148 137 201 147 221 130 184 176 160 158 194 194 209 244 227 81 173 196 210 180 217 244
248 246 243 244 240 242 225 261 180 194 198 226 196 206 193 174 173 134 195 161 163 168 116 205 99 117 63 159 225 184 228 185 179 182 202 222 155 145 186 162 176 242 212 258
243 242 242 240 244 235 234 212 174 207 191 209 156 202 186 160 160 161 128 319 161 171 170 152 180 187 114 178 241 128 260 166 194 78 258 233 234 268 178 193 216 246 235 249
240 240 238 235 244 241 243 225 177 205 169 222 224 152 198 171 152 160 149 143 111 108 73 105 135 153 158 215 220 176 203 118 185 272 289 307 303 292 303 322 266 273 256 228
234 235 235 233 232 235 236 240 181 187 220 205 194 77 217 176 173 153 135 128 118 116 76 111 200 202 96 314 56 258 177 185 163 234 234 187 266 281 297 290 279 257 268 285
232 231 240 235 226 226 215 240 200 192 173 228 163 132 148 148 163 161 154 145 118 119 134 191 224 219 123 158 214 250 253 187 219 257 279 259 267 273 263 265 248 255 255 258
229 231 235 226 231 219 207 186 169 190 159 221 125 159 275 153 126 111 106 102 131 126 151 163 151 183 160 143 244 256 274 255 267 272 2 283 261 287 345 345 349 354 343 291
234 229 230 234 237 237 227 226 223 195 183 172 156 149 155 156 147 152 127 145 119 131 157 86 149 123 121 236 239 245 148 215 259 315 21 282 295 319 16 356 354 353 346 338
232 229 231 236 230 225 225 207 218 213 239 189 158 153 160 138 93 110 92 122 150 124 165 185 134 202 209 223 219 223 147 174 297 319 290 324 7 3 2 348 353 328 326 333
235 232 224 213 198 183 166 186 197 198 205 203 177 132 147 156 124 118 114 129 154 174 214 124 181 237 240 132 93 98 97 71 30 354 318 348 299 342 325 320 321 325 319 317
182 184 187 211 157 161 181 220 180 163 184 206 149 152 133 295 132 130 174 149 157 161 222 153 192 257 217 128 111 90 80 71 62 1 295 290 291 303 311 310 310 307 311 297
183 142 109 131 190 180 213 184 147 170 181 200 148 140 118 120 93 111 145 147 122 191 143 114 228 233 114 121 117 86 64 52 1 311 308 310 305 309 298 293 294 291 290 285
128 112 136 163 212 154 161 149 208 125 169 190 138 125 113 102 100 123 135 135 194 128 116 203 224 133 137 152 135 108 56 38 359 316 299 305 298 312 274 288 282 286 286 286
84 112 167 226 80 174 162 179 159 187 160 147 135 109 122 116 125 129 123 169 98 72 155 225 222 179 156 166 137 108 344 327 306 286 296 302 304 298 293 287 287 299 310 310
72 62 173 63 228 284 151 265 258 319 135 135 126 71 91 105 122 120 114 108 168 189 214 217 168 147 140 157 160 127 311 305 288 277 296 297 307 316 309 309 320 330 329 355
70 30 49 343 160 355 29 346 47 349 24 130 64 105 96 118 130 121 179 134 198 220 203 172 128 134 159 165 154 172 217 228 257 277 258 272 283 230 258 328 1 359 16 28
54 60 49 326 56 49 331 335 326 322 319 103 109 96 147 96 83 108 178 193 213 165 129 83 119 157 174 166 149 189 220 228 282 312 325 279 296 87 61 30 342 5 16 47